Las Cruces, NM

10:44 PM MST on December 17, 2017 (GMT -0700)
Las Cruces International

Weather History for KLRU - May, 2014

Change the Weather History Date:

Sunday, May 11, 2014

  Actual Average Record
Temperature  
Mean Temperature 72 °F -  
Max Temperature 85 °F 83 °F 91 °F (2001)
Min Temperature 58 °F 54 °F 41 °F (2011)
Cooling Degree Days 6    
Growing Degree Days 22 (Base 50)    
Moisture  
Dew Point 18 °F    
Average Humidity 13    
Maximum Humidity 18    
Minimum Humidity 9    
Precipitation  
Precipitation 0.00 in - - ()
Sea Level Pressure  
Sea Level Pressure 29.77 in    
Wind  
Wind Speed 17 mph (WSW)    
Max Wind Speed 36 mph    
Max Gust Speed 48 mph    
Visibility 10 miles    
Events      
Averages and records for this station are not official NWS values.
T = Trace of Precipitation, MM = Missing Value Source: NWS Daily Summary

Daily Weather History Graph

Daily Weather History Graph

Search for Another Location

Airport or City:

Trip Planner

Search our weather history database for the weather conditions in past years. The results will help you decide how hot, cold, wet, or windy it might be!

Date:

Astronomy

May. 11, 2014 Rise Set
Actual Time 6:12 AM MDT 7:55 PM MDT
Civil Twilight 5:45 AM MDT 8:22 PM MDT
Nautical Twilight 5:13 AM MDT 8:54 PM MDT
Astronomical Twilight 4:39 AM MDT 9:28 PM MDT
Moon 5:04 PM MDT (5/11) 4:07 AM MDT (5/11)
Length of Visible Light 14h 36m
Length of Day
13h 43m
Waxing Gibbous, 89% of the Moon is Illuminated
May 11
Waxing Gibbous
May 14
Full
May 21
Last Quarter
May 28
New
Jun 5
First Quarter

Hourly Weather History & Observations

Time (MDT) Temp. Dew Point Humidity Pressure Visibility Wind Dir Wind Speed Gust Speed Precip Events Conditions
12:15 AM 67.6 °F 14.5 °F 13% 29.82 in 10.0 mi WSW 12.7 mph - N/A   Clear
12:35 AM 66.7 °F 14.2 °F 13% 29.82 in 10.0 mi WSW 11.5 mph - N/A   Clear
12:55 AM 68.9 °F 14.7 °F 12% 29.81 in 10.0 mi WSW 16.1 mph 21.9 mph N/A   Clear
1:15 AM 68.4 °F 14.0 °F 12% 29.81 in 10.0 mi WSW 16.1 mph - N/A   Clear
1:35 AM 68.4 °F 14.5 °F 13% 29.80 in 10.0 mi SW 12.7 mph - N/A   Clear
1:55 AM 66.9 °F 14.0 °F 13% 29.80 in 10.0 mi SW 9.2 mph - N/A   Clear
2:15 AM 65.8 °F 14.0 °F 13% 29.79 in 10.0 mi SW 13.8 mph - N/A   Clear
2:35 AM 65.7 °F 13.5 °F 13% 29.78 in 10.0 mi SW 15.0 mph - N/A   Clear
2:55 AM 65.1 °F 13.1 °F 13% 29.78 in 10.0 mi SW 13.8 mph 18.4 mph N/A   Clear
3:15 AM 65.3 °F 13.6 °F 14% 29.79 in 10.0 mi SW 12.7 mph - N/A   Clear
3:35 AM 63.7 °F 13.1 °F 14% 29.79 in 10.0 mi SSW 9.2 mph - N/A   Clear
3:55 AM 60.8 °F 12.7 °F 15% 29.79 in 10.0 mi SSW 4.6 mph - N/A   Clear
4:15 AM 60.8 °F 12.9 °F 15% 29.78 in 10.0 mi SSW 6.9 mph - N/A   Clear
4:35 AM 60.3 °F 13.1 °F 16% 29.78 in 10.0 mi WSW 9.2 mph - N/A   Clear
4:55 AM 59.0 °F 13.6 °F 17% 29.78 in 10.0 mi WSW 4.6 mph - N/A   Clear
5:15 AM 59.7 °F 14.0 °F 17% 29.77 in 10.0 mi SSW 9.2 mph - N/A   Clear
5:35 AM 60.6 °F 13.8 °F 16% 29.77 in 10.0 mi SW 9.2 mph - N/A   Clear
5:55 AM 60.4 °F 13.8 °F 16% 29.78 in 10.0 mi SW 9.2 mph - N/A   Clear
6:15 AM 59.5 °F 13.1 °F 16% 29.78 in 10.0 mi SW 8.1 mph - N/A   Clear
6:35 AM 59.4 °F 13.6 °F 17% 29.78 in 10.0 mi SSW 6.9 mph - N/A   Clear
6:55 AM 58.8 °F 14.0 °F 17% 29.79 in 10.0 mi SSW 5.8 mph - N/A   Clear
7:15 AM 61.0 °F 15.3 °F 17% 29.80 in 10.0 mi SW 5.8 mph - N/A   Clear
7:35 AM 63.5 °F 16.0 °F 16% 29.80 in 10.0 mi SSW 9.2 mph - N/A   Clear
7:55 AM 66.4 °F 16.5 °F 15% 29.81 in 10.0 mi SW 13.8 mph 19.6 mph N/A   Clear
8:15 AM 68.9 °F 16.2 °F 13% 29.81 in 10.0 mi SW 18.4 mph 24.2 mph N/A   Clear
8:35 AM 70.2 °F 16.2 °F 13% 29.82 in 10.0 mi SW 18.4 mph 24.2 mph N/A   Clear
8:55 AM 71.2 °F 15.8 °F 12% 29.82 in 10.0 mi SW 16.1 mph 25.3 mph N/A   Clear
9:15 AM 72.7 °F 16.2 °F 12% 29.81 in 10.0 mi WSW 15.0 mph 25.3 mph N/A   Clear
9:35 AM 73.4 °F 17.8 °F 12% 29.82 in 10.0 mi WSW 21.9 mph 33.4 mph N/A   Clear
9:55 AM 74.3 °F 17.6 °F 12% 29.81 in 10.0 mi WSW 28.8 mph 38.0 mph N/A   Clear
10:15 AM 75.2 °F 18.0 °F 12% 29.80 in 10.0 mi SW 29.9 mph 38.0 mph N/A   Clear
10:35 AM 75.4 °F 19.0 °F 12% 29.80 in 10.0 mi WSW 28.8 mph 40.3 mph N/A   Clear
10:55 AM 77.0 °F 19.9 °F 12% 29.80 in 10.0 mi SW 31.1 mph 38.0 mph N/A   Clear
11:15 AM 78.1 °F 19.8 °F 11% 29.80 in 10.0 mi WSW 25.3 mph 35.7 mph N/A   Clear
11:35 AM 77.9 °F 19.8 °F 11% 29.79 in 10.0 mi SW 20.7 mph 34.5 mph N/A   Clear
11:55 AM 79.0 °F 20.1 °F 11% 29.80 in 10.0 mi WSW 19.6 mph 28.8 mph N/A   Clear
12:15 PM 79.5 °F 20.1 °F 11% 29.79 in 10.0 mi SW 25.3 mph 34.5 mph N/A   Clear
12:35 PM 80.8 °F 20.5 °F 11% 29.78 in 10.0 mi SW 19.6 mph 34.5 mph N/A   Clear
12:55 PM 81.3 °F 20.3 °F 10% 29.76 in 10.0 mi WSW 27.6 mph 35.7 mph N/A   Clear
1:15 PM 81.5 °F 20.5 °F 10% 29.75 in 10.0 mi SW 26.5 mph 40.3 mph N/A   Clear
1:35 PM 82.9 °F 20.1 °F 10% 29.74 in 10.0 mi WSW 24.2 mph 35.7 mph N/A   Clear
1:55 PM 82.8 °F 20.1 °F 10% 29.74 in 10.0 mi WSW 27.6 mph 39.1 mph N/A   Clear
2:15 PM 84.2 °F 19.4 °F 9% 29.72 in 7.0 mi WSW 29.9 mph 43.7 mph N/A   Clear
2:35 PM 83.7 °F 20.1 °F 10% 29.71 in 10.0 mi WSW 35.7 mph 48.3 mph N/A   Clear
2:55 PM 84.2 °F 20.8 °F 10% 29.71 in 10.0 mi WSW 31.1 mph 46.0 mph N/A   Clear
3:15 PM 84.4 °F 21.7 °F 10% 29.71 in 10.0 mi SW 32.2 mph 42.6 mph N/A   Clear
3:35 PM 84.2 °F 22.1 °F 10% 29.70 in 10.0 mi SW 28.8 mph 34.5 mph N/A   Clear
3:55 PM 85.1 °F 22.6 °F 10% 29.70 in 10.0 mi WSW 34.5 mph 42.6 mph N/A   Clear
4:15 PM 84.4 °F 22.3 °F 10% 29.69 in 10.0 mi WSW 28.8 mph 43.7 mph N/A   Clear
4:35 PM 84.2 °F 22.3 °F 10% 29.69 in 10.0 mi WSW 33.4 mph 42.6 mph N/A   Clear
4:55 PM 84.7 °F 22.5 °F 10% 29.68 in 10.0 mi WSW 27.6 mph 42.6 mph N/A   Clear
5:15 PM 84.2 °F 22.6 °F 10% 29.68 in 10.0 mi SW 28.8 mph 35.7 mph N/A   Clear
5:35 PM 83.7 °F 22.8 °F 11% 29.68 in 10.0 mi SW 26.5 mph 42.6 mph N/A   Clear
5:55 PM 83.3 °F 22.8 °F 11% 29.68 in 10.0 mi SW 31.1 mph 40.3 mph N/A   Clear
6:15 PM 82.8 °F 23.0 °F 11% 29.68 in 10.0 mi SW 31.1 mph 39.1 mph N/A   Clear
6:35 PM 82.0 °F 22.5 °F 11% 29.69 in 10.0 mi WSW 34.5 mph 41.4 mph N/A   Clear
6:55 PM 81.1 °F 22.6 °F 12% 29.69 in 10.0 mi WSW 32.2 mph 39.1 mph N/A   Clear
7:15 PM 80.2 °F 21.7 °F 11% 29.70 in 10.0 mi WSW 29.9 mph 43.7 mph N/A   Clear
7:35 PM 79.0 °F 20.8 °F 11% 29.71 in 10.0 mi WSW 26.5 mph 35.7 mph N/A   Clear
7:55 PM 77.7 °F 21.6 °F 12% 29.72 in 10.0 mi West 21.9 mph 33.4 mph N/A   Clear
8:15 PM 75.2 °F 25.9 °F 16% 29.74 in 10.0 mi West 21.9 mph 31.1 mph N/A   Scattered Clouds
8:35 PM 73.4 °F 26.6 °F 18% 29.76 in 10.0 mi West 24.2 mph 34.5 mph N/A   Scattered Clouds
8:55 PM 72.0 °F 25.5 °F 18% 29.78 in 10.0 mi West 27.6 mph 33.4 mph N/A   Clear
9:15 PM 71.1 °F 24.6 °F 18% 29.80 in 10.0 mi West 21.9 mph 29.9 mph N/A   Clear
9:35 PM 69.6 °F 20.5 °F 16% 29.81 in 10.0 mi West 21.9 mph 31.1 mph N/A   Clear
9:55 PM 68.4 °F 19.2 °F 15% 29.83 in 10.0 mi West 17.3 mph 25.3 mph N/A   Clear
10:15 PM 67.3 °F 17.6 °F 15% 29.84 in 10.0 mi West 16.1 mph 21.9 mph N/A   Clear
10:55 PM 65.3 °F 15.8 °F 15% 29.87 in 10.0 mi West 16.1 mph 21.9 mph N/A   Clear
11:15 PM 64.4 °F 15.4 °F 15% 29.87 in 10.0 mi West 18.4 mph - N/A   Clear
11:35 PM 63.7 °F 15.8 °F 16% 29.90 in 10.0 mi NW 8.1 mph - N/A   Clear
11:55 PM 62.8 °F 15.4 °F 16% 29.91 in 10.0 mi NW 5.8 mph - N/A   Clear